Home > Weather > Prievidza > Past weeks

Flag for Slovakia Past Weather in Prievidza, Slovakia — Yesterday and Last 2 Weeks

Now
76 °F

Scattered clouds.


Feels Like: 77 °F
Forecast: 60 / 84 °F
Wind: N/A

Location: Prievidza

Current Time: Jul 24, 2016 at 8:34:33 PM

Latest Report: Jul 24, 2016 at 8:00 PM


Visibility: 19 mi

Pressure: 29.98 "Hg

Humidity: 80%

Dew Point: 69 °F

Location of PrievidzaLocation

Past Weather in Prievidza — Graph

°F

Prievidza Temperature Yesterday

Maximum temperature yesterday: 89 °F (at 3:00 PM)
Minimum temperature yesterday: 61 °F (at 4:00 AM)
Average temperature yesterday: 74 °F

High & Low Weather Summary for the Past Weeks

 TemperatureHumidityPressure
High92 °F (Jul 11, 3:00 PM)95% (Jul 13, 5:00 AM)30.14 "Hg (Jul 13, 5:00 AM)
Low49 °F (Jul 15, 5:00 AM)32% (Jul 23, 1:00 PM)29.63 "Hg (Jul 14, 6:00 AM)
Average69 °F69%29.97 "Hg
* Reported Jul 9 7:00 PM — Jul 24 7:00 PM, Prievidza, Weather by CustomWeather, © 2016

Note: Actual official high and low records may vary slightly from our data, if they occured in-between our weather recording intervals... More about our weather records

Advertising

Prievidza Weather History for the Previous 24 Hours

Scroll right to see more
 ConditionsComfort  
Time TempWeatherWind HumidityBarometerVisibility
7:00 PM
Sun, Jul 24
77 °FScattered clouds.N/A77%29.97 "Hg17 mi
6:00 PM79 °FPartly sunny.2 mph71%29.98 "Hg19 mi
4:00 PM80 °FPartly sunny.N/A64%29.99 "Hg25 mi
3:00 PM82 °FOvercast.N/A59%30.00 "Hg22 mi
2:00 PM81 °FOvercast.2 mph64%30.01 "Hg22 mi
1:00 PM81 °FPartly sunny.N/A66%30.01 "Hg19 mi
12:00 PM76 °FOvercast.3 mph74%30.02 "Hg25 mi
11:00 AM78 °FOvercast.N/A65%30.01 "Hg22 mi
10:00 AM77 °FOvercast.2 mph65%30.01 "Hg22 mi
9:00 AM76 °FPartly sunny.3 mph62%30.01 "Hg25 mi
8:00 AM75 °FPartly sunny.3 mph63%30.01 "Hg25 mi
7:00 AM70 °FMild.N/A69%30.01 "Hg25 mi
6:00 AM62 °FCool.No wind86%30.03 "Hg19 mi
5:00 AM62 °FCool.No wind85%30.02 "Hg22 mi
3:00 AM65 °FMild.N/A75%30.03 "Hg25 mi
2:00 AM66 °FMild.3 mph74%30.03 "Hg28 mi
1:00 AM66 °FMild.2 mph77%30.02 "Hg19 mi
12:00 AM67 °FMild.2 mph78%30.01 "Hg19 mi
11:00 PM
Sat, Jul 23
69 °FMild.1 mph76%30.00 "Hg25 mi
10:00 PM72 °FPassing clouds.No wind74%29.99 "Hg19 mi
9:00 PM75 °FPassing clouds.N/A66%29.96 "Hg25 mi
8:00 PM80 °FScattered clouds.N/A57%29.94 "Hg31 mi
Weather by CustomWeather, © 2016

See weather overviewHow to use our weather pages